Regional Weather Roundup
Issued by NWS

Home | Current Version | Previous Version | Text Only | Print | Product List | Glossary On
Versions: 1 2 3 4 5 6 7 8 9 10 11 12 13 14 15 16 17 18 19 20 21 22 23 24 25 26 27 28 29 30 31 32 33 34 35 36 37 38 39 40 41 42 43 44 45 46 47 48 49 50
000
ASUS44 KJAN 070010
RWRMS

MISSISSIPPI HOURLY WEATHER ROUNDUP
NATIONAL WEATHER SERVICE JACKSON MS
600 PM CST SAT FEB 06 2016

NOTE: "FAIR: INDICATES FEW OR NO CLOUDS BELOW 12,000 FEET WITH NO
SIGNIFICANT WEATHER AND/OR OBSTRUCTIONS TO VISIBILITY.

MSZ001>002-007>008-010>013-018>021-025>028-034>036-070100-
NORTHWEST MISSISSIPPI

CITY           SKY/WX    TMP DP  RH WIND       PRES   REMARKS
CLEVELAND      FAIR      49  28  45 NE3       30.32R
GREENWOOD      CLEAR     50  22  33 NW3       30.30R
6HR MIN TEMP:  50; 6HR MAX TEMP:  58;

GREENVILLE     CLEAR     49  23  36 NE3       30.31R
6HR MIN TEMP:  49; 6HR MAX TEMP:  56;

OLIVE BRANCH   PTCLDY    46  21  36 CALM      30.29F
OXFORD         FAIR      43  21  42 CALM      30.31S
TUNICA         PTCLDY    48  19  32 CALM      30.32S
$$

MSZ003>006-009-014>017-022>024-029>033-037>039-070100-
NORTHEAST MISSISSIPPI

CITY           SKY/WX    TMP DP  RH WIND       PRES   REMARKS
COLUMBUS AFB   CLEAR     46  25  43 N5        30.28S
6HR MIN TEMP:  46; 6HR MAX TEMP:  54;

CORINTH        FAIR      46  27  46 CALM      30.30S
GOLDN TRIANGLE CLEAR     46  21  36 N7        30.28F
STARKVILLE       N/A     45  21  39 CALM      30.30S
TUPELO         CLOUDY    44  23  43 N3        30.31R
6HR MIN TEMP:  44; 6HR MAX TEMP:  53;

$$

MSZ040-058-070100-
CENTRAL MISSISSIPPI

CITY           SKY/WX    TMP DP  RH WIND       PRES   REMARKS
JACKSON INTL   PTCLDY    47  25  42 CALM      30.28R
6HR MIN TEMP:  47; 6HR MAX TEMP:  57;

JACKSON HAWKNS CLEAR     51  16  24 N3        30.28R
6HR MIN TEMP:  51; 6HR MAX TEMP:  56;

MERIDIAN KEY   CLEAR     45  21  38 N6        30.28R
6HR MIN TEMP:  45; 6HR MAX TEMP:  55;

MERIDIAN NAS   CLEAR     47  19  33 N5        30.28S
6HR MIN TEMP:  47; 6HR MAX TEMP:  55;

VICKSBURG      CLEAR     51  25  36 N5        30.31R
6HR MIN TEMP:  50; 6HR MAX TEMP:  58;

$$

MSZ059>079-070100-
SOUTH MISSISSIPPI

CITY           SKY/WX    TMP DP  RH WIND       PRES   REMARKS
BROOKHAVEN     FAIR      50  27  40 N3        30.28R
HATTIESBURG    CLEAR     50  22  33 CALM      30.27R
6HR MIN TEMP:  49; 6HR MAX TEMP:  58;

MCCOMB         CLEAR     52  23  32 N3        30.26R
6HR MIN TEMP:  52; 6HR MAX TEMP:  58;

NATCHEZ        CLEAR     52  18  25 N3        30.29R
6HR MIN TEMP:  52; 6HR MAX TEMP:  57;

PINE BELT      CLEAR     45  25  45 N5        30.27S
6HR MIN TEMP:  45; 6HR MAX TEMP:  57;

$$

MSZ080>082-070100-
COASTAL MISSISSIPPI

CITY           SKY/WX    TMP DP  RH WIND       PRES   REMARKS
BAY ST LOUIS   MOCLDY    48  27  43 CALM      30.26R
BILOXI         MOCLDY    49  34  56 CALM      30.25R
6HR MIN TEMP:  49; 6HR MAX TEMP:  59;

PASCAGOULA     CLEAR     49  34  56 CALM      30.25R
6HR MIN TEMP:  48; 6HR MAX TEMP:  60;

GULFPORT       CLOUDY    50  31  48 CALM      30.25R
6HR MIN TEMP:  50; 6HR MAX TEMP:  57;

$$



USA.gov is the U.S. government's official web portal to all federal, state and local government web resources and services.